Theta_e
344 344 343 342 341 341 341 339 340 340 340 340 339 340 340 338 337 337 339 339 338 339 341 341 340 342 345 345 344 344 344 344 343 344 343 342 342 344 344 344 345 344 344 343 344 344 342 339 339 340 341 343 344 344 344 343 342 342 343 344 345 344 345 344 342 341 341 343 343 343 343 343 343 343 344 344 345 344 344 344 344 344 344 343 343
346 344 342 340 339 340 339 340 341 341 341 341 340 340 340 339 338 338 338 338 338 339 341 342 342 343 345 346 346 344 343 343 344 344 343 342 342 342 343 343 344 344 343 344 344 344 342 339 338 339 342 343 344 344 344 344 343 342 342 343 345 345 344 342 340 340 340 341 341 342 342 342 341 342 342 343 344 344 343 343 343 343 344 343 343
348 345 342 340 339 341 341 342 342 340 340 340 339 340 340 341 341 341 340 340 339 339 341 343 343 343 344 344 344 345 344 344 344 344 344 343 342 342 342 344 344 344 343 344 345 344 343 340 338 337 340 342 343 343 343 343 343 342 342 342 343 343 343 342 342 343 342 341 340 341 341 340 340 340 341 342 342 342 342 343 342 342 343 342 343
347 345 342 340 341 343 343 343 341 339 338 337 339 342 343 344 344 343 343 341 340 339 340 341 342 343 343 344 344 344 345 344 344 343 343 343 341 342 343 344 344 344 345 345 345 344 343 342 340 337 338 340 342 342 343 342 342 342 342 342 342 343 342 342 343 343 343 343 343 343 343 342 341 341 341 341 341 342 342 341 342 342 342 342 342
347 345 341 342 343 343 342 340 340 339 337 339 342 345 346 345 344 344 344 342 342 341 340 341 342 343 344 344 344 344 345 345 345 344 343 343 342 342 343 344 344 344 343 344 344 344 344 342 340 339 337 338 340 342 342 342 342 342 341 342 342 342 342 342 343 343 344 344 344 344 344 344 341 342 342 341 342 341 342 341 341 341 341 342 342
348 346 344 344 345 343 338 337 340 340 341 344 345 347 346 345 343 343 343 343 343 343 342 342 342 343 343 343 343 343 344 345 344 344 343 344 344 343 342 343 344 342 341 342 343 344 344 343 341 340 339 338 338 341 341 342 342 342 341 341 341 342 342 342 344 345 345 344 343 344 344 343 342 341 341 341 342 342 342 341 341 342 341 341 341
348 349 347 346 345 341 337 339 343 343 344 346 346 347 347 345 343 342 343 343 343 343 343 343 343 342 342 342 341 342 344 344 343 343 344 344 344 343 342 342 342 341 343 343 342 343 343 342 341 340 340 339 340 340 341 341 342 342 340 339 341 342 342 343 345 346 344 343 343 344 344 344 343 341 341 341 341 342 342 341 341 342 342 341 341
347 346 346 345 342 337 338 342 345 344 345 344 345 346 345 343 343 342 343 342 342 342 342 343 344 343 342 342 341 341 342 342 342 343 343 344 344 344 344 343 343 344 344 343 342 343 342 341 339 337 338 341 341 341 342 342 342 340 339 339 342 342 343 345 345 344 343 343 343 344 345 345 343 342 342 342 342 341 342 342 341 341 342 342 342
345 345 348 344 336 336 339 343 344 344 344 344 346 345 342 341 342 342 342 342 342 341 340 342 342 342 342 342 341 342 343 343 343 343 342 343 344 345 345 344 345 345 344 343 343 343 342 340 337 336 336 338 339 340 341 342 341 339 339 341 341 342 343 344 344 344 344 342 342 343 345 346 343 342 341 342 341 342 342 343 343 342 342 342 341
344 345 349 343 336 338 340 343 345 343 343 345 345 344 342 341 341 341 341 342 342 341 341 340 340 342 342 342 342 342 344 343 343 343 343 343 344 344 344 344 344 344 344 343 343 343 342 340 338 337 336 336 337 337 339 340 339 337 339 341 341 341 341 344 345 343 342 341 342 342 342 342 340 339 338 339 339 340 340 341 343 342 341 340 339
343 345 348 342 337 339 341 344 345 344 345 344 344 344 342 341 341 340 340 341 342 342 341 339 340 342 342 344 343 343 344 343 343 343 343 343 343 343 343 344 343 343 343 343 343 342 342 341 339 337 336 336 336 336 336 336 336 335 338 340 339 339 340 344 345 343 342 342 342 342 342 339 336 336 337 337 337 337 337 338 339 339 339 338 337
344 346 346 339 338 341 343 344 345 346 345 343 343 343 343 341 341 340 341 341 342 343 342 341 341 342 342 344 344 344 343 343 343 343 343 343 343 343 343 343 343 342 343 342 342 341 341 341 341 339 337 335 335 336 336 334 334 335 338 338 337 339 341 345 346 343 344 344 344 344 342 336 335 336 337 337 337 337 337 337 337 337 337 336 336
347 347 345 340 341 343 343 344 345 345 345 344 344 344 343 342 342 341 341 343 343 344 343 343 343 342 342 344 344 344 344 343 344 344 344 344 344 344 343 343 343 342 342 341 340 341 340 340 340 340 338 335 333 334 335 333 333 335 335 335 338 339 342 346 347 344 344 343 343 342 337 333 333 335 336 335 336 336 336 336 336 336 336 336 336
348 349 348 345 344 343 344 344 343 344 344 344 344 344 342 341 342 342 342 342 344 344 344 344 344 344 343 343 344 344 345 344 344 344 344 344 344 343 343 343 343 343 342 341 341 341 340 338 338 337 335 332 330 330 330 332 333 334 334 336 338 339 342 345 345 343 341 341 340 338 334 332 332 334 335 334 334 333 331 331 330 331 332 333 334
349 350 349 345 344 344 343 343 343 342 343 343 343 342 340 341 342 342 342 343 344 344 343 343 344 344 344 344 344 345 345 344 343 344 344 344 344 343 343 343 343 343 342 341 341 341 339 337 336 333 332 329 328 327 328 329 331 333 334 338 337 338 343 345 344 344 342 342 340 335 334 332 330 331 333 332 331 328 327 327 327 327 328 329 330
350 350 347 344 343 343 343 342 342 341 343 344 342 340 341 343 343 342 343 343 342 342 341 342 343 343 344 344 344 344 344 344 344 344 344 344 344 344 344 344 343 342 342 342 341 339 338 336 335 334 334 332 329 327 327 328 329 332 334 335 335 336 340 342 343 344 344 344 342 337 333 330 327 328 328 328 328 327 328 327 327 328 328 329 330
350 349 347 345 344 344 344 343 342 342 344 344 341 340 342 344 343 343 344 344 342 341 342 342 342 343 344 344 344 344 344 344 344 344 344 343 343 343 344 343 343 341 341 341 340 338 337 336 336 336 337 336 333 330 328 327 328 329 330 331 331 334 338 341 341 343 343 343 343 339 331 327 326 326 326 327 327 328 328 328 328 329 329 330 330
348 348 347 347 349 348 346 344 344 344 344 343 342 341 342 344 343 344 345 345 344 343 343 343 343 343 342 343 344 344 344 344 344 344 343 343 343 343 342 341 340 340 340 338 338 338 337 337 337 337 337 337 336 334 330 328 327 327 328 329 330 335 339 340 340 341 342 343 342 334 326 325 325 325 326 326 326 326 327 327 327 327 328 329 329
347 347 348 349 350 350 347 345 345 347 346 342 342 343 343 345 344 343 344 343 344 344 344 343 343 343 343 344 343 344 344 344 343 343 344 343 342 341 340 339 339 339 338 336 337 338 338 337 336 335 335 335 334 334 333 332 330 330 330 331 334 338 340 341 341 341 342 344 339 327 324 326 325 326 327 327 328 328 328 328 328 328 329 329 329
349 346 347 346 347 350 349 346 345 347 348 343 343 345 344 345 344 343 343 343 343 344 344 344 344 343 344 344 344 344 343 343 343 343 343 342 340 340 339 338 338 338 338 337 337 338 337 337 337 336 335 333 333 332 332 333 332 332 333 334 337 340 341 341 342 342 342 342 335 327 328 327 328 328 329 330 331 331 332 332 332 332 332 332 332
350 349 348 346 348 351 350 348 346 346 347 345 343 344 344 344 343 344 344 343 343 343 344 344 345 344 344 344 345 344 343 343 343 342 342 340 338 339 338 338 338 338 338 338 338 338 337 337 338 338 336 334 332 331 330 331 332 332 334 337 339 342 343 343 343 342 343 342 334 330 331 330 331 331 331 333 333 333 333 334 333 333 332 332 331
352 352 350 350 351 352 351 351 349 346 347 347 343 343 345 345 344 344 344 343 343 344 343 344 344 344 344 344 343 343 345 344 342 341 341 340 338 338 338 338 338 339 339 338 338 339 339 339 338 338 337 336 336 335 333 333 333 335 337 340 341 342 344 344 344 343 344 341 332 330 332 331 331 331 332 333 331 331 331 332 331 329 329 327 327
353 353 352 352 352 352 352 352 350 347 347 349 345 342 344 346 346 345 345 345 345 344 342 343 343 343 343 343 343 342 344 344 342 341 340 340 338 337 338 339 340 340 340 339 338 338 338 337 337 339 340 339 341 341 340 338 338 340 341 341 342 343 344 344 343 343 345 339 329 329 331 330 330 330 330 330 330 328 328 327 326 325 324 323 323
353 353 352 351 352 352 353 352 352 350 349 350 349 346 344 345 346 346 345 345 345 344 340 341 343 342 341 342 344 342 342 342 341 340 339 338 337 336 338 339 340 340 338 337 336 336 336 338 339 342 342 342 343 343 344 343 343 343 343 342 342 343 344 343 343 343 343 336 328 329 329 329 329 328 328 327 327 326 326 325 323 323 322 323 323
351 352 351 350 350 352 352 351 351 353 352 351 350 350 348 346 347 347 345 344 345 346 342 342 341 341 341 340 342 342 341 340 340 339 338 337 336 336 337 338 338 338 338 337 337 338 338 342 343 343 343 342 343 343 343 344 343 343 343 342 342 344 342 342 343 344 343 333 328 330 329 328 328 327 327 325 325 325 325 325 324 325 325 325 325
350 351 351 350 351 352 352 351 351 353 352 350 350 351 350 349 349 349 347 346 347 347 345 344 343 344 346 342 339 340 340 339 339 340 339 339 339 338 338 339 340 340 341 341 341 343 343 344 345 344 344 342 342 343 343 343 341 340 342 343 343 343 342 342 343 344 345 337 329 329 328 327 327 326 326 325 325 325 325 325 326 326 326 327 327
349 350 349 349 351 351 352 352 352 352 350 349 351 351 351 351 350 350 350 349 348 348 348 347 346 347 347 344 340 340 342 342 340 340 340 341 342 342 341 343 343 342 345 345 345 347 347 347 349 348 347 344 343 343 343 343 342 339 341 343 343 342 342 343 343 344 345 337 327 327 327 325 326 325 325 326 325 326 326 327 327 327 329 331 334
348 349 349 349 350 351 351 352 351 351 351 350 351 350 350 351 351 350 351 351 350 350 349 347 347 347 347 345 343 343 344 346 344 344 345 344 345 345 345 346 347 347 347 348 348 349 348 349 350 350 349 346 344 343 342 343 343 341 341 343 342 342 343 343 343 345 345 339 329 327 327 326 327 327 326 327 327 327 327 328 331 334 337 340 342
348 348 348 348 350 350 350 349 349 350 350 350 349 349 349 350 351 351 351 351 351 350 347 347 348 348 348 346 344 344 346 347 348 348 348 347 347 348 348 348 348 348 349 349 349 349 349 349 350 350 350 348 345 345 344 343 343 342 342 343 342 342 344 343 344 345 343 344 338 328 328 328 327 328 328 327 327 329 331 335 339 341 343 344 345
348 348 349 349 349 350 349 349 349 350 350 349 349 349 350 350 350 351 350 350 349 349 347 347 348 349 348 346 345 345 345 347 348 348 348 348 349 349 350 350 349 348 348 350 350 350 350 351 351 350 351 349 347 346 345 344 342 342 343 343 343 342 343 344 345 345 343 345 342 333 330 329 328 327 328 328 331 335 339 342 343 343 344 345 346
348 348 348 349 349 349 350 349 348 350 350 349 349 349 350 349 349 349 349 349 349 348 347 347 348 348 347 347 348 347 346 347 347 348 349 349 349 350 350 349 350 349 349 351 352 352 352 352 351 351 352 350 348 347 345 344 342 342 344 343 344 343 345 346 346 347 345 346 347 342 333 329 328 329 331 334 337 341 343 343 343 343 345 346 348
347 348 349 349 349 349 349 350 348 348 350 349 348 349 349 349 349 349 348 349 348 348 346 346 346 344 343 346 349 349 348 348 349 349 349 350 350 351 351 350 351 352 350 350 350 351 352 351 350 351 353 351 348 348 346 345 343 342 343 343 344 344 347 348 345 344 344 345 349 347 339 332 331 332 336 340 342 343 343 343 344 345 347 348 348
348 348 348 349 349 349 349 349 346 346 349 348 348 349 349 349 349 347 347 348 348 347 347 345 343 339 339 342 344 344 346 347 348 350 350 351 352 351 352 352 351 350 348 347 349 351 351 350 349 350 351 350 348 348 346 344 344 344 342 343 345 345 347 348 345 346 347 346 347 348 345 342 340 337 339 341 343 345 344 343 345 346 347 347 347
348 347 348 349 349 349 349 349 347 347 350 349 349 349 350 350 348 347 347 348 348 347 346 344 341 339 339 339 341 342 343 344 346 350 352 351 352 352 352 353 351 348 347 348 351 352 350 348 347 348 350 349 348 347 347 344 344 346 344 344 345 346 348 348 347 346 347 347 346 346 347 348 347 345 345 344 343 345 345 344 344 346 346 346 345
348 347 348 348 348 348 348 349 348 349 349 349 350 350 350 350 349 348 348 348 347 347 347 347 346 346 343 340 342 343 342 342 344 349 352 351 352 352 353 352 351 351 349 349 352 351 351 351 348 347 348 349 347 346 346 346 345 345 345 346 345 348 348 345 347 345 344 346 345 346 347 347 346 346 348 347 344 344 344 343 343 344 345 344 341
348 348 348 348 348 348 349 349 349 349 348 349 350 351 352 351 350 349 349 348 348 347 347 349 349 350 348 343 341 342 342 342 342 348 352 351 351 352 350 347 349 352 350 349 351 350 348 350 350 348 348 347 346 346 344 345 344 343 345 346 345 348 347 345 349 346 344 347 344 344 345 346 346 346 347 347 346 346 343 342 342 341 341 340 338
347 348 348 348 348 349 349 348 349 350 349 348 348 350 352 352 351 350 349 350 349 348 348 349 350 351 351 345 341 342 343 342 343 349 353 351 350 351 349 346 349 351 351 352 352 349 349 350 350 350 349 349 347 346 344 344 343 343 345 345 344 347 347 346 347 345 345 347 345 345 345 345 347 348 348 346 346 348 348 347 346 343 337 337 337
348 348 348 349 348 349 349 349 350 350 350 349 349 351 351 352 353 351 351 350 348 349 349 349 349 351 351 345 342 343 342 343 344 347 353 353 352 353 350 349 349 348 352 355 352 351 352 352 351 349 349 349 349 347 345 345 343 343 344 343 344 346 345 345 346 346 347 345 344 344 343 344 346 344 343 344 343 346 350 350 351 350 341 336 336
349 348 349 350 348 348 351 350 350 351 350 347 350 353 351 352 353 352 352 352 349 350 349 350 350 350 350 344 344 345 343 344 344 346 352 353 352 353 350 349 350 349 352 353 351 352 351 351 352 351 351 349 348 346 345 347 345 344 345 343 344 346 346 345 346 347 345 343 344 344 343 344 345 344 342 344 344 343 345 350 352 352 348 342 338
350 350 349 351 349 350 352 351 351 352 350 348 350 353 352 353 353 352 353 353 352 351 351 352 349 350 350 345 344 345 344 345 345 344 350 354 355 353 350 352 353 351 352 354 354 352 350 351 351 350 351 349 347 347 345 347 346 344 346 345 345 346 346 347 347 346 345 343 343 344 344 343 343 344 344 343 344 343 343 349 349 346 350 353 349
351 351 350 351 350 350 352 351 353 352 350 351 352 354 353 353 353 351 353 353 353 352 351 351 350 351 351 348 347 345 344 345 346 345 346 349 353 352 349 353 356 351 350 353 352 349 347 352 353 349 350 350 348 347 345 346 346 344 346 346 346 346 346 347 346 345 345 343 341 342 344 343 342 343 343 342 344 346 343 344 344 342 350 353 352
352 351 351 352 350 351 351 350 353 352 352 353 353 354 353 352 352 351 351 352 353 352 352 351 352 352 347 347 350 347 344 344 345 344 343 345 350 350 347 351 355 349 345 347 346 344 346 352 354 350 348 348 348 347 344 346 347 345 347 346 345 346 347 347 345 345 345 341 340 343 343 343 343 342 344 344 344 345 343 343 343 345 351 352 351
351 351 351 352 351 352 351 351 352 352 354 354 353 355 354 353 353 352 350 350 351 352 353 352 351 351 347 348 349 345 344 345 344 345 346 348 350 350 350 350 350 348 345 346 346 345 348 353 354 351 348 348 348 347 346 347 345 344 347 347 346 346 346 345 345 344 345 343 341 342 343 341 342 343 345 344 344 345 344 344 345 345 349 350 349
351 351 352 352 352 353 352 351 352 352 355 353 352 356 355 354 353 353 352 351 352 353 353 353 351 352 351 349 345 341 347 350 349 351 352 348 346 350 356 353 347 347 347 345 347 349 351 354 354 352 351 350 349 347 348 347 346 346 348 348 348 347 347 347 345 344 343 343 341 342 343 341 341 343 343 342 342 344 343 343 343 342 343 345 347
350 350 352 352 352 353 352 350 350 352 353 350 350 354 352 351 351 352 353 353 354 353 351 352 353 353 353 351 347 343 349 354 353 355 355 347 344 348 352 352 347 346 349 350 351 352 353 354 352 351 352 352 351 349 347 347 347 349 348 349 350 349 348 347 346 346 345 344 341 341 343 342 342 343 343 343 341 341 342 342 340 341 345 345 346
350 349 351 350 351 354 352 350 350 352 352 347 345 349 349 348 349 350 353 353 355 353 351 352 352 352 352 352 351 347 350 355 354 355 355 348 346 345 346 352 353 348 350 354 353 351 352 354 353 353 353 352 352 352 349 348 348 348 347 348 349 350 350 348 347 347 345 344 343 340 343 344 343 343 343 343 341 339 341 343 340 340 345 346 345
349 349 350 349 351 354 353 351 350 351 353 346 341 346 347 347 350 352 353 353 354 354 354 354 351 352 353 352 354 352 351 355 354 353 351 346 346 345 346 352 356 352 350 353 353 352 353 353 353 355 353 349 351 354 352 349 348 349 348 347 347 347 349 350 350 349 346 345 345 342 343 344 343 342 343 343 342 341 342 344 342 340 342 344 346
349 349 349 349 351 355 354 352 351 352 353 346 340 344 345 346 351 355 353 352 354 354 355 356 353 354 355 353 355 353 349 354 356 351 346 345 345 345 346 348 353 355 353 353 354 354 354 352 348 348 348 348 351 353 352 352 351 350 350 349 349 347 347 349 349 350 349 346 346 346 344 344 342 341 341 343 343 342 341 342 342 343 343 341 342
349 348 349 350 352 355 354 353 351 351 352 346 340 343 344 344 350 356 354 353 354 351 352 356 354 356 355 355 357 355 349 350 352 348 345 346 345 345 346 346 350 353 353 355 354 353 353 347 344 346 348 351 353 350 350 353 354 352 351 351 349 348 348 348 348 348 349 348 347 347 345 345 345 343 342 342 342 342 341 341 342 344 345 344 342
348 348 349 349 352 355 354 352 351 351 350 345 340 342 343 343 349 356 355 354 356 354 354 355 351 352 353 353 354 354 352 350 349 346 344 345 344 346 349 348 351 354 353 355 354 351 349 346 347 351 350 351 352 351 351 353 353 353 353 351 348 348 349 349 348 348 348 348 348 348 347 346 346 346 345 343 343 343 341 341 344 344 345 345 344
348 349 348 349 353 354 353 351 349 351 350 345 342 342 343 344 348 354 354 353 356 356 356 354 348 348 352 354 353 352 354 355 353 348 346 348 345 347 352 352 353 354 351 352 354 352 351 352 353 351 347 346 349 351 352 353 352 350 350 350 348 349 351 349 350 350 347 348 349 348 348 348 347 347 346 346 346 346 345 344 345 345 347 345 346
Wind_Speed
13 13 11 11 10 11 10 10 10 10 10 10 10 9 8 7 7 7 7 8 8 9 8 8 8 10 11 11 10 9 11 12 12 12 12 12 12 13 13 13 13 14 15 15 15 17 17 17 17 17 17 17 17 16 16 16 16 16 16 17 17 17 17 17 17 16 16 16 17 18 18 17 17 17 16 17 17 17 18 19 18 18 18 18 18
14 13 11 11 11 11 10 10 10 10 9 9 8 8 8 7 7 7 7 7 6 8 8 7 7 9 10 11 10 9 10 11 12 12 12 11 12 12 12 13 14 15 15 15 16 17 18 18 17 17 16 15 16 16 16 16 16 15 15 16 17 17 17 17 17 18 17 16 16 17 17 16 16 16 16 16 16 17 17 18 17 17 17 18 17
14 13 10 11 11 10 10 10 10 9 8 7 7 8 9 9 9 8 8 8 7 8 8 8 8 9 9 10 10 10 9 10 11 12 12 12 12 12 13 14 15 15 14 14 16 17 18 17 17 16 15 15 15 16 15 15 16 15 15 16 16 16 17 17 17 18 18 17 16 16 16 16 16 16 16 16 16 16 16 17 17 17 17 17 17
14 13 10 10 10 10 10 10 9 8 8 8 8 8 8 8 7 7 8 9 8 7 8 8 8 9 9 9 10 10 11 11 11 11 12 12 12 13 14 15 15 15 13 14 16 17 17 17 16 16 14 14 15 16 15 15 15 15 15 15 16 16 16 17 17 17 16 16 16 16 16 16 16 16 16 16 16 16 16 17 17 17 16 16 16
14 13 11 10 9 9 10 11 10 10 10 8 8 8 7 7 6 6 7 8 8 7 7 7 8 10 9 9 10 10 11 12 12 11 12 11 12 14 14 15 15 14 14 14 15 16 16 16 16 16 14 14 15 15 15 15 14 14 15 15 15 16 16 17 17 16 15 15 16 16 16 15 16 17 16 16 16 16 16 16 16 16 16 15 15
13 12 11 10 9 8 10 11 11 10 9 8 8 9 8 6 6 7 8 7 8 8 7 7 8 9 9 10 10 10 10 12 12 12 12 12 12 14 15 15 15 14 14 15 15 15 16 16 16 16 15 14 14 14 15 14 14 14 15 15 16 16 16 16 16 16 15 15 16 16 15 15 15 17 16 16 16 15 15 15 15 15 15 14 13
13 12 11 10 9 9 9 11 11 10 8 7 8 9 9 6 6 8 9 7 7 7 7 7 8 9 9 10 11 10 10 11 11 11 12 12 12 14 15 15 15 15 15 16 16 16 16 16 16 15 14 15 14 14 14 14 15 15 15 15 16 17 17 16 14 14 15 14 15 15 14 14 15 16 15 15 15 15 15 15 14 14 14 13 12
13 12 11 10 8 9 10 11 10 8 8 8 7 8 8 6 8 9 8 8 7 8 8 8 9 9 9 10 11 11 11 11 11 11 11 12 12 14 15 16 16 16 16 16 17 17 16 15 15 14 14 14 14 13 14 15 15 16 15 16 17 18 18 16 14 14 15 15 15 14 14 13 13 14 14 14 14 14 14 13 13 12 12 12 11
12 12 11 8 8 9 10 10 10 8 8 9 8 8 7 6 7 9 9 8 8 9 9 9 9 10 10 10 11 11 11 11 11 11 12 11 12 13 15 15 15 16 16 16 17 17 16 15 15 15 15 14 13 13 13 14 15 16 16 16 17 18 17 15 13 13 14 13 13 14 13 12 11 12 12 12 13 12 12 12 12 11 10 10 9
12 13 12 9 8 9 10 10 9 9 8 8 9 8 7 5 7 10 10 9 9 10 10 10 10 11 11 11 11 11 11 11 11 12 13 12 12 13 14 15 15 15 15 16 16 17 16 16 16 16 16 15 14 13 13 13 14 15 16 16 15 16 15 14 13 12 12 12 12 12 12 10 10 10 11 11 11 10 10 10 10 8 8 8 8
12 13 12 9 9 9 10 10 9 10 9 9 9 8 6 6 7 9 10 10 9 10 11 10 10 11 12 13 12 12 12 12 12 12 13 13 13 13 14 15 15 15 15 15 15 16 17 17 17 16 16 15 15 15 14 14 14 15 15 15 14 14 15 14 13 13 12 12 13 12 11 10 9 10 11 11 10 9 8 8 7 7 7 7 8
12 13 11 9 9 10 11 10 9 10 9 9 10 8 6 6 8 9 9 9 9 10 11 10 11 11 12 13 12 12 13 13 13 13 13 13 14 14 15 15 15 15 15 15 15 16 16 16 16 16 15 14 14 15 15 16 16 16 15 14 14 14 15 15 13 13 13 13 13 12 10 9 8 9 11 10 10 9 8 8 7 7 8 8 8
13 12 10 9 10 10 11 11 10 10 10 10 10 9 7 8 10 8 8 9 10 11 11 11 12 12 12 13 13 13 13 13 14 14 14 14 16 16 16 16 16 16 15 15 15 15 16 16 16 15 15 14 14 14 15 16 16 15 14 14 14 15 16 14 12 12 12 12 12 11 9 8 7 9 10 9 9 8 8 8 8 9 9 9 9
13 13 11 10 10 10 11 10 10 10 10 11 10 9 8 10 11 8 9 10 11 12 12 12 13 13 13 14 14 14 14 14 14 15 14 15 17 17 16 16 16 16 15 15 14 15 16 16 16 16 16 15 15 14 15 15 15 14 14 13 14 15 16 12 10 12 11 12 11 9 7 6 6 8 9 9 9 9 8 8 8 8 8 8 8
13 13 11 10 10 10 11 10 11 10 11 12 11 9 9 12 11 10 10 11 13 14 13 13 14 14 14 15 15 15 15 16 15 15 15 15 17 17 16 16 16 16 16 15 15 16 16 16 16 17 17 17 17 16 16 15 15 14 13 13 11 13 15 10 9 11 11 11 10 7 6 5 6 8 9 8 8 8 8 8 7 7 7 8 7
13 12 11 10 10 10 10 11 12 12 14 14 12 11 12 12 12 11 12 14 15 15 14 15 15 15 15 16 17 16 17 17 17 16 16 16 16 17 17 17 16 16 16 16 16 17 17 17 17 17 17 17 17 18 17 16 15 14 14 13 11 12 16 13 9 10 10 10 9 7 6 5 6 7 8 8 8 8 8 8 7 7 7 7 6
13 12 11 11 11 11 11 12 13 14 15 15 14 13 13 13 13 13 13 16 17 15 15 16 17 17 17 18 18 18 18 18 17 17 16 16 17 17 17 17 17 17 16 16 17 17 18 17 17 17 16 16 17 17 17 17 16 15 14 13 13 14 17 16 10 8 10 9 8 6 5 5 5 6 7 7 8 8 7 7 7 7 6 6 5
12 12 12 12 11 11 10 13 14 14 16 16 14 14 14 13 14 14 14 17 17 16 17 18 19 19 19 19 19 19 19 18 18 17 17 17 17 18 18 18 18 17 17 17 18 18 17 17 16 16 16 15 15 15 15 16 15 15 15 14 15 16 18 16 9 8 10 9 6 5 4 4 5 6 7 7 7 7 7 6 6 6 5 4 4
12 13 13 13 12 11 10 13 15 16 17 16 15 15 14 14 14 15 16 18 18 18 18 19 20 21 20 20 19 19 19 18 18 18 18 17 18 18 18 18 18 18 17 18 18 17 17 16 16 15 15 15 15 14 14 14 14 14 14 15 15 16 17 13 9 8 9 8 5 4 4 4 5 6 7 7 7 6 6 5 5 5 4 3 2
11 12 13 13 13 12 9 11 14 17 17 16 16 16 15 15 17 17 18 18 19 19 19 20 21 22 21 20 20 19 19 18 18 18 18 18 18 18 18 18 18 17 17 17 17 16 16 15 14 14 14 14 14 13 13 14 13 12 12 12 13 15 14 10 8 7 6 6 5 5 4 4 5 6 6 6 6 6 5 5 4 4 3 2 1
10 10 11 13 13 12 9 9 12 16 18 18 17 17 17 17 18 19 19 20 20 21 20 20 21 21 21 20 20 19 19 18 18 18 18 18 18 18 18 18 17 17 16 16 16 16 15 14 14 13 13 13 13 13 13 13 11 11 10 10 12 12 9 7 7 7 6 5 5 5 4 4 4 4 5 6 5 5 5 4 4 3 2 2 2
11 10 10 12 13 11 10 10 11 14 18 19 17 17 18 19 20 20 20 21 21 21 20 20 20 20 20 19 19 19 18 18 18 18 18 18 18 18 17 17 17 16 16 16 16 16 15 14 13 12 11 11 12 12 11 11 11 10 10 12 12 8 6 7 7 7 6 3 4 5 3 4 4 4 5 5 5 6 6 5 4 3 2 2 3
11 10 10 11 11 11 10 10 11 12 16 18 17 18 19 18 19 20 20 20 20 20 20 20 19 20 20 18 18 19 19 18 18 18 18 18 18 17 16 17 17 16 16 15 16 16 15 13 11 10 9 9 10 9 8 9 10 10 11 12 10 6 7 7 6 6 5 2 4 4 3 3 3 4 5 6 6 6 6 5 4 4 3 4 4
11 11 10 10 11 11 10 11 11 10 13 15 16 17 18 18 18 19 19 20 19 20 21 20 19 20 20 19 17 18 19 19 18 18 17 17 18 18 16 16 16 16 15 15 15 14 13 11 9 9 9 10 11 9 7 7 8 9 11 8 6 6 6 6 5 5 3 2 4 4 3 3 3 5 6 7 7 7 7 6 6 6 6 6 6
11 11 10 10 11 11 10 11 11 11 11 13 14 14 14 16 17 16 18 21 20 19 20 20 20 20 19 19 18 18 19 19 18 17 15 16 17 18 16 16 15 15 13 12 12 10 9 9 9 9 10 10 8 7 6 5 5 6 7 5 5 6 5 5 5 4 1 3 5 4 4 4 5 6 7 8 8 8 8 7 8 7 8 8 8
11 11 11 11 11 11 10 10 11 11 10 13 16 15 13 14 15 14 16 19 19 18 19 19 20 19 17 18 19 18 18 19 18 16 14 14 15 16 15 14 13 12 10 10 10 8 6 7 8 9 9 7 5 6 6 5 6 6 6 5 6 5 5 5 4 4 2 3 5 4 4 5 6 7 7 8 8 8 8 8 8 8 9 9 10
10 11 11 11 11 11 11 11 11 11 10 13 15 14 14 14 13 13 14 15 16 17 17 17 18 17 16 16 17 17 17 16 16 15 13 13 12 12 12 11 10 10 9 8 8 7 6 6 6 7 6 5 5 7 6 7 7 6 6 6 5 5 5 4 3 4 2 3 5 5 4 5 6 7 8 8 8 8 8 9 9 10 10 11 12
11 11 10 11 11 11 12 11 12 12 11 13 14 13 14 14 14 13 13 14 14 14 15 16 17 15 14 14 14 15 14 14 13 12 11 10 10 9 9 9 9 9 8 6 6 6 6 5 5 5 5 5 6 6 6 7 7 6 5 5 5 5 4 4 3 4 2 3 6 5 5 5 6 7 8 8 8 9 9 10 10 11 12 12 12
11 11 11 11 11 11 11 11 12 12 13 13 14 14 14 14 14 13 13 13 13 14 15 15 15 14 13 13 13 13 13 13 12 11 11 10 9 8 8 8 7 7 7 6 5 5 5 5 5 4 5 5 5 5 5 6 6 5 5 5 5 5 4 4 4 4 4 2 4 6 5 5 6 7 7 8 9 10 10 11 11 11 11 11 11
11 11 11 11 11 11 11 11 12 13 13 13 14 13 13 13 14 14 13 14 14 14 14 13 13 13 13 13 13 13 13 13 12 12 12 11 9 9 9 8 7 6 6 6 5 4 4 4 4 4 4 4 4 5 5 5 5 5 5 5 5 5 4 4 5 4 4 3 3 7 7 6 7 7 8 9 9 10 10 10 10 11 11 11 11
11 11 11 11 11 11 11 11 12 13 12 12 14 13 13 13 13 13 14 14 14 13 12 12 11 12 16 17 13 12 12 12 12 11 11 10 9 9 8 8 7 6 6 5 5 5 5 4 5 5 4 4 4 4 5 5 5 5 5 5 4 4 4 3 4 5 5 4 3 6 8 7 7 8 9 9 9 9 9 10 10 10 10 10 10
11 11 11 11 11 11 11 11 11 13 12 12 14 13 13 14 12 13 14 15 13 13 12 12 12 14 17 18 15 13 13 13 12 10 9 9 8 8 8 7 7 5 5 6 7 7 6 5 6 6 4 3 4 4 4 5 4 5 5 4 4 4 3 3 4 5 5 5 4 4 7 7 8 7 8 8 8 8 8 9 9 9 10 10 10
11 11 11 12 12 11 12 10 11 13 12 12 13 13 13 13 12 13 14 14 12 12 13 13 14 15 14 14 15 14 13 12 12 10 8 8 8 7 8 7 6 6 7 9 8 8 6 5 6 7 5 3 4 3 4 5 5 4 5 4 4 4 4 4 5 5 4 5 5 3 4 5 7 7 7 8 7 8 8 8 8 9 9 9 9
12 12 12 12 12 11 12 10 11 13 12 11 12 12 12 12 12 13 13 12 12 12 12 13 14 13 12 12 12 12 12 11 13 12 7 7 7 7 7 6 6 7 7 9 8 6 6 5 7 9 6 4 4 4 4 5 4 4 4 4 4 3 3 4 4 4 4 4 3 3 3 4 6 7 7 9 9 9 8 8 8 9 9 9 10
12 13 13 12 12 12 11 11 11 12 12 12 12 11 11 11 11 11 12 11 11 12 11 12 11 10 10 11 11 10 11 10 12 13 8 6 6 6 6 6 7 6 5 9 7 5 5 5 7 10 7 5 4 4 5 4 3 3 3 4 4 3 4 4 5 4 5 5 2 2 3 3 3 5 6 9 10 10 9 8 9 9 9 10 10
13 13 13 12 12 12 11 12 12 11 12 12 12 12 11 10 11 11 11 11 10 10 10 10 10 9 8 9 10 10 10 10 12 13 9 6 6 5 5 6 7 6 5 8 7 5 7 6 7 10 8 6 4 4 5 4 4 4 3 4 3 4 4 4 4 5 6 4 2 3 5 5 6 7 8 7 9 10 11 10 10 11 10 10 10
13 14 13 13 13 12 12 12 12 11 12 12 13 13 12 11 11 10 10 10 9 9 9 9 9 8 7 8 9 9 10 10 11 14 9 5 6 4 5 6 5 5 6 7 5 5 7 6 6 8 6 5 4 4 3 3 4 3 3 4 3 3 3 3 4 6 6 3 1 3 6 6 8 10 8 6 6 8 10 12 13 13 12 10 9
14 14 13 13 13 13 12 12 12 11 11 12 12 11 12 12 10 10 10 9 9 9 9 8 8 8 7 8 9 8 9 10 11 14 11 6 6 5 4 5 4 5 6 4 3 4 5 5 4 6 5 5 4 4 3 3 3 3 3 3 2 3 4 4 5 5 5 3 3 5 5 6 8 9 6 5 6 9 9 12 14 14 14 12 9
14 14 14 14 14 13 13 13 12 11 11 12 13 10 11 11 9 10 10 9 8 9 9 8 8 10 8 8 9 8 9 10 9 12 11 6 5 5 5 5 4 5 8 4 3 3 3 4 3 4 5 4 4 4 3 2 2 3 4 4 3 4 4 4 4 4 6 5 3 3 5 9 7 7 10 7 5 8 8 10 13 12 14 14 12
14 15 14 14 14 13 13 13 12 11 11 11 11 10 9 10 9 9 10 9 9 8 9 8 7 7 7 7 8 8 8 9 8 9 11 8 5 4 4 5 3 4 8 5 2 1 3 4 3 5 5 3 4 3 2 3 2 3 4 4 4 5 5 5 4 4 6 6 4 3 2 7 6 3 7 6 4 7 11 11 10 10 11 14 15
15 15 15 14 14 13 13 14 12 11 11 11 10 9 8 9 9 9 8 9 9 9 9 8 6 6 8 8 8 8 8 8 8 8 8 9 8 5 5 6 2 3 6 4 2 2 3 4 3 6 5 3 3 3 2 3 3 4 4 4 5 5 4 5 5 4 6 6 5 6 3 5 8 6 4 6 8 8 11 11 9 9 10 11 14
16 16 15 15 15 14 13 13 12 11 10 10 10 9 8 8 8 8 8 9 10 9 8 8 8 7 9 9 7 7 8 7 7 7 7 7 7 5 6 7 4 3 4 3 3 3 4 4 4 4 4 3 4 4 3 3 2 3 4 5 5 4 2 3 4 4 6 7 5 5 3 5 7 5 5 8 11 9 7 8 8 9 11 9 9
16 16 16 15 15 14 14 14 12 12 10 10 11 9 8 9 8 7 6 8 9 9 8 8 8 8 8 9 8 8 8 7 7 6 6 5 6 5 3 4 4 3 3 3 2 2 3 4 4 3 4 5 4 4 3 3 5 3 3 5 5 4 4 3 5 5 5 6 5 5 5 5 4 4 5 5 8 8 5 6 7 8 10 9 8
16 16 16 16 15 14 15 15 13 12 11 11 12 10 10 11 12 9 7 8 8 9 9 8 7 8 8 7 7 8 7 7 6 5 4 5 6 6 3 3 3 3 2 3 3 3 3 2 3 3 4 5 4 4 3 3 6 4 1 2 3 4 4 3 5 6 6 6 6 6 7 7 5 5 5 5 7 6 5 7 8 8 10 10 9
17 17 17 16 16 15 15 15 14 13 11 12 13 12 11 13 14 12 10 9 8 8 9 7 7 8 8 7 7 8 8 7 6 6 5 6 6 5 5 3 2 3 2 2 3 2 1 1 3 4 4 3 3 4 3 3 4 2 2 3 5 6 4 3 4 4 4 7 6 4 5 6 5 4 5 5 7 5 5 8 9 8 9 10 9
17 17 17 16 16 16 16 15 15 14 12 12 14 13 12 11 11 10 8 8 7 7 8 8 8 7 7 8 7 7 8 7 7 7 5 5 5 5 5 4 1 2 3 2 1 1 2 1 1 3 2 2 3 3 3 4 3 2 3 4 4 4 3 1 1 3 3 4 4 3 3 4 3 3 4 5 5 6 4 5 8 8 9 9 8
18 17 17 16 16 16 16 15 15 15 13 13 14 13 12 11 9 8 7 7 7 7 6 6 7 7 7 8 7 7 8 7 6 7 7 5 5 4 5 4 2 2 2 4 2 1 2 2 2 2 2 3 3 2 3 5 3 2 3 2 1 1 2 1 1 3 3 1 2 3 3 4 3 3 5 5 3 4 3 2 4 6 9 10 7
18 18 17 17 17 17 17 16 16 15 15 14 14 14 13 13 11 8 8 7 7 8 7 6 7 7 7 7 7 7 8 9 7 7 6 5 5 5 4 5 4 3 3 2 2 2 3 3 3 2 2 3 2 1 3 4 2 2 2 1 1 1 0 2 1 1 2 1 1 2 2 3 4 3 3 4 2 4 3 2 4 4 9 12 10
18 18 18 18 18 18 17 16 16 16 16 15 15 14 13 14 13 9 8 7 6 7 8 7 7 8 8 8 8 7 7 9 8 6 5 5 5 5 4 5 5 3 2 2 2 3 4 4 3 2 2 2 1 1 3 3 2 2 1 0 1 1 1 1 1 1 1 2 0 1 2 1 3 3 1 2 2 4 3 3 6 5 6 14 14
18 18 18 18 18 18 18 17 16 16 16 15 15 15 14 14 13 10 9 9 6 6 8 7 9 9 9 9 10 8 6 6 6 5 5 5 5 5 4 3 3 3 3 4 4 3 3 2 2 2 2 2 1 1 1 1 1 1 1 1 1 1 1 2 2 1 0 1 1 2 2 1 1 2 1 1 1 5 3 2 4 3 5 12 14
18 18 18 18 18 18 18 18 17 16 16 15 15 15 14 14 14 13 12 11 8 8 8 7 8 9 8 7 7 7 6 5 5 4 4 5 5 6 4 2 4 4 4 4 3 3 2 1 2 3 2 2 2 1 1 1 1 0 0 2 1 1 2 2 3 3 2 2 2 0 1 2 0 1 0 1 2 3 3 4 4 5 9 11 13
Wind_Direction
126 127 127 126 122 115 110 104 95 92 89 87 86 83 83 83 86 85 87 88 88 90 93 95 96 101 113 125 127 126 123 121 118 115 113 113 112 110 111 110 106 107 107 107 106 103 101 100 102 105 104 104 103 103 99 95 92 94 94 93 95 95 93 89 86 86 87 88 87 86 86 85 82 80 81 84 84 84 86 88 88 87 88 88 88
130 129 129 129 121 113 107 102 94 91 90 88 88 90 96 94 92 92 91 93 100 103 107 112 112 112 118 125 129 130 128 122 119 116 114 114 112 113 113 112 113 111 109 110 109 105 102 102 104 105 104 103 103 104 101 97 92 92 93 92 94 94 92 89 87 87 87 87 86 85 85 83 82 82 81 81 82 84 86 88 88 88 88 88 88
130 129 130 128 117 113 108 99 93 93 92 88 93 98 103 102 106 112 107 109 117 117 121 124 117 116 115 120 128 132 129 121 117 115 115 115 114 117 117 117 117 113 112 112 109 105 104 104 105 106 106 102 100 103 102 97 94 92 92 93 94 94 91 89 88 85 84 85 85 83 82 83 84 82 81 81 82 85 87 89 89 90 90 90 89
128 127 128 123 113 111 105 96 92 93 92 96 101 98 100 104 109 112 110 113 118 118 125 123 114 117 119 123 130 133 128 120 116 116 115 115 115 117 120 121 118 115 114 110 106 105 104 104 104 106 108 105 102 102 102 98 95 94 94 94 94 94 92 90 87 85 85 87 87 85 83 83 84 83 83 83 82 85 87 89 89 89 89 89 89
126 125 124 117 110 104 98 95 95 95 99 109 108 100 100 105 105 106 107 108 111 115 122 126 120 121 128 131 130 129 124 120 119 118 115 116 119 120 125 124 119 116 112 107 107 106 105 104 102 103 108 111 108 105 103 101 98 97 96 94 94 95 93 91 89 87 87 88 87 84 83 83 85 86 84 85 85 86 87 88 88 87 87 86 87
127 125 123 117 110 100 96 98 101 103 109 113 106 100 97 102 106 102 99 104 114 120 129 137 130 125 133 132 126 126 123 123 123 121 120 122 124 124 129 126 117 115 114 113 110 107 105 103 100 100 105 110 110 106 103 101 100 98 97 96 95 94 93 91 89 88 86 84 85 83 83 83 85 86 85 86 88 88 87 87 87 86 85 83 82
124 124 123 118 112 105 102 103 104 109 111 103 96 97 99 104 99 90 93 107 121 128 135 136 133 130 132 125 122 129 127 125 124 123 124 125 127 124 127 126 121 122 121 118 113 107 103 100 99 101 106 108 109 108 104 101 100 99 98 99 98 96 95 92 87 85 84 82 84 84 83 84 84 85 85 85 87 88 87 86 86 85 84 83 81
127 123 118 113 110 105 104 103 104 108 104 99 95 96 100 101 94 90 96 108 117 124 132 133 132 130 131 125 125 131 128 126 128 127 125 126 130 128 127 124 124 125 121 117 114 107 101 97 99 104 108 109 110 109 106 104 102 101 102 101 99 97 94 91 84 79 82 85 88 88 84 82 83 85 85 84 85 86 87 88 86 83 84 83 80
128 114 110 109 106 106 107 103 101 101 96 97 96 93 91 88 93 95 100 110 114 117 126 135 132 126 128 127 127 130 125 127 130 129 129 128 127 125 124 122 122 122 118 115 112 105 101 98 97 101 105 107 109 109 107 106 104 104 105 104 100 97 93 90 84 79 82 85 86 85 83 81 82 85 85 85 85 85 86 87 85 82 82 83 81
125 115 114 117 118 118 113 105 102 101 97 98 94 89 90 91 91 94 101 108 112 117 125 133 133 129 130 127 125 126 125 128 128 127 127 126 123 121 121 120 121 119 116 113 109 105 101 97 95 96 99 103 104 105 107 108 107 107 107 104 99 96 94 90 83 82 84 85 83 81 84 83 81 83 83 85 84 83 82 83 85 85 85 83 80
127 121 120 124 125 122 115 108 106 105 102 100 95 93 97 98 92 95 104 111 118 120 122 128 131 132 130 125 123 124 126 127 125 124 122 122 123 123 120 118 119 119 115 111 107 104 100 97 94 91 93 98 100 102 105 109 112 113 110 104 97 93 92 88 85 85 85 86 85 82 83 80 77 82 83 83 84 84 84 87 90 90 86 82 79
122 120 123 123 121 121 115 111 109 105 102 98 98 102 107 102 92 95 105 113 119 115 116 127 131 131 127 123 124 123 124 125 123 122 120 121 121 121 121 118 117 116 113 109 106 103 100 98 93 89 88 93 99 102 104 109 113 113 110 103 96 94 93 89 86 86 85 85 84 83 80 76 78 84 84 83 84 86 87 87 87 85 84 82 80
120 121 125 121 121 121 114 113 111 106 104 102 105 112 118 105 93 97 106 110 112 111 116 123 126 126 125 124 124 122 124 126 122 120 120 120 119 120 121 119 117 114 112 112 110 106 102 97 93 91 88 90 98 104 105 107 110 110 107 103 101 99 95 92 92 89 87 87 85 85 80 75 81 87 86 84 85 87 87 85 82 83 84 84 82
124 125 125 122 122 118 112 113 112 110 108 104 107 115 115 101 99 104 107 112 113 112 115 117 120 122 123 123 123 124 125 123 118 117 118 117 116 116 116 116 116 114 114 115 112 106 101 98 93 90 88 89 95 103 108 108 109 108 106 106 107 102 91 87 95 94 89 87 86 85 83 81 85 89 89 86 86 86 86 87 86 85 85 85 82
125 126 125 121 118 116 116 115 113 111 108 107 112 115 106 99 103 107 107 112 110 108 112 116 119 120 121 119 120 122 120 118 116 116 116 114 112 113 114 115 117 116 117 116 111 106 102 97 92 89 87 88 92 99 106 110 111 109 108 108 109 108 100 92 91 93 93 91 90 89 88 84 82 89 89 86 85 85 85 87 88 88 86 84 81
127 126 125 119 116 116 116 113 111 110 111 114 116 110 101 101 103 101 104 106 105 107 109 112 117 118 119 117 117 117 116 116 116 116 115 114 113 114 116 116 116 116 116 112 108 105 101 97 94 91 89 89 92 97 103 108 110 111 111 108 105 105 101 93 83 84 89 89 91 95 88 81 81 87 88 87 87 86 87 87 87 87 87 86 85
136 130 126 119 115 113 113 112 109 110 111 110 110 106 100 100 99 98 102 104 107 110 109 110 113 115 116 117 116 114 115 116 116 115 113 114 115 116 115 113 112 112 110 107 106 104 101 99 97 94 91 91 92 95 101 105 108 110 109 105 102 98 90 87 84 79 80 78 82 94 90 83 87 90 92 93 92 90 87 86 84 82 83 84 85
134 128 123 117 114 116 116 112 110 111 107 104 105 100 96 96 96 99 103 105 110 112 111 111 111 113 116 116 115 113 114 115 116 115 112 113 114 114 113 111 111 110 107 104 104 102 101 100 98 94 92 92 92 94 98 101 104 104 103 99 97 95 87 85 86 82 80 77 74 87 92 92 98 101 99 94 90 88 85 83 81 79 80 83 84
126 124 122 123 124 124 120 111 112 112 106 104 103 98 97 99 98 102 103 105 111 113 112 111 111 112 114 115 113 112 113 114 115 114 112 112 112 112 111 111 111 109 107 105 104 104 103 100 96 94 93 93 92 93 94 96 98 99 99 96 93 86 81 81 84 83 86 91 84 81 97 109 109 104 97 92 88 85 84 82 81 80 77 78 83
120 121 125 129 126 121 119 108 107 109 108 104 100 100 100 100 100 102 103 106 111 112 111 111 112 113 114 112 110 110 111 112 113 113 112 111 111 111 111 110 108 107 105 106 106 106 105 100 97 93 92 92 90 91 91 91 92 95 96 95 91 79 74 78 84 81 83 92 85 81 98 107 104 101 96 91 87 83 84 87 86 79 71 66 61
120 118 119 119 114 116 120 109 107 111 114 108 101 103 103 100 101 102 104 107 110 110 111 112 113 115 114 112 112 112 112 112 113 114 112 111 111 110 110 108 107 106 105 106 106 105 103 98 95 92 91 92 91 88 86 89 87 87 90 87 81 76 76 82 86 83 80 78 68 72 88 92 93 98 100 94 86 83 82 86 84 70 57 54 37
126 120 112 112 111 119 122 117 120 114 114 112 103 102 103 104 104 104 105 107 109 110 112 114 115 115 113 114 116 115 114 115 117 116 114 114 113 111 110 110 109 107 107 109 107 104 101 97 94 90 90 91 90 86 84 87 82 79 80 73 71 77 86 85 83 85 85 67 51 61 65 77 90 97 104 99 89 81 74 72 65 55 46 57 53
128 125 119 116 116 121 121 120 122 112 112 115 110 100 99 104 106 106 107 108 110 111 113 116 116 114 113 115 118 118 118 118 119 119 117 116 115 114 114 113 112 111 111 110 106 104 99 95 92 86 85 86 82 82 78 75 70 65 67 67 71 85 85 83 82 82 91 55 39 50 48 67 94 97 98 94 88 79 69 67 64 62 65 70 67
129 127 123 121 120 121 121 119 117 110 104 105 107 100 96 99 102 103 107 110 111 110 113 115 115 114 113 113 115 117 119 120 120 118 116 116 117 119 118 114 113 112 109 106 103 101 97 90 85 81 79 75 69 65 60 60 57 52 63 71 80 87 80 87 92 87 100 51 38 35 38 63 91 89 87 85 87 83 78 79 79 79 76 72 68
130 126 124 123 121 120 119 117 114 110 105 104 106 103 98 94 94 100 106 110 111 111 114 116 115 113 111 112 112 114 116 119 118 116 114 113 115 118 117 112 112 110 105 105 101 96 96 90 80 75 70 63 62 73 73 72 72 64 78 90 85 90 87 91 98 94 82 25 36 34 45 67 85 87 86 88 92 91 88 87 85 83 78 74 69
130 125 125 125 122 121 117 114 111 113 120 119 112 107 106 98 95 102 105 107 111 113 117 118 114 113 115 114 114 115 116 118 117 115 112 110 113 114 113 112 112 110 106 104 94 84 85 79 69 65 68 69 80 99 98 90 91 84 90 92 82 92 94 90 94 94 80 13 32 41 58 73 85 88 90 92 95 94 92 89 86 84 80 77 74
129 126 127 125 124 122 119 118 115 115 115 110 108 112 115 112 110 109 107 109 112 114 117 118 116 118 121 116 114 116 116 117 116 113 108 108 109 106 104 100 95 92 89 83 71 61 59 56 56 61 73 90 88 87 91 94 93 83 83 90 91 95 93 92 89 89 78 18 45 57 68 79 87 90 93 94 95 95 93 91 88 86 84 79 74
129 127 127 127 126 124 124 123 120 117 111 106 108 113 114 116 115 112 113 115 114 116 120 120 119 119 118 113 109 112 117 120 117 111 107 103 99 91 84 78 75 76 80 78 66 62 64 58 58 66 75 84 88 88 87 90 93 88 85 89 95 93 90 93 93 92 84 24 42 55 67 77 85 89 94 96 96 96 95 94 92 87 81 76 70
129 128 127 128 128 125 123 121 120 116 112 110 112 113 113 115 115 115 116 116 118 122 122 119 117 115 115 117 116 118 121 121 119 117 115 108 104 99 93 90 89 90 93 92 86 79 78 74 67 66 68 77 95 104 96 95 98 98 96 93 94 90 89 93 92 94 102 80 32 45 63 73 83 91 95 98 99 98 97 93 88 81 73 67 62
131 130 128 129 128 126 122 122 122 116 113 114 115 116 116 116 116 117 117 117 119 119 117 117 118 120 121 122 124 124 123 123 123 121 117 113 113 111 107 105 102 103 104 97 92 87 82 83 78 70 66 74 90 96 97 104 102 99 100 102 99 88 90 96 91 93 100 103 45 44 59 70 78 89 94 97 97 94 91 86 79 73 67 60 53
133 131 129 130 129 126 125 127 126 117 117 120 119 118 117 116 114 116 119 118 117 116 118 122 124 132 132 126 121 121 122 123 122 117 115 114 115 111 110 111 108 106 103 100 98 94 90 90 92 86 73 76 89 92 96 104 103 104 104 104 107 99 101 103 94 96 90 90 70 38 46 65 77 85 91 90 88 85 80 77 72 66 60 52 44
136 134 131 131 129 129 126 127 129 121 118 119 119 119 117 115 113 119 122 117 117 120 122 124 128 134 133 128 126 131 132 128 123 119 118 118 117 115 116 114 109 105 101 102 94 82 76 75 80 77 69 72 84 93 101 105 106 110 112 106 107 103 94 88 91 98 83 73 83 42 30 51 65 74 81 79 75 72 69 68 65 60 52 43 34
138 136 134 133 131 133 128 128 132 121 116 119 118 118 118 115 117 124 120 116 119 123 125 129 133 132 129 128 130 135 133 128 124 117 115 117 116 118 118 116 114 115 112 103 82 69 72 81 85 81 77 76 84 95 104 108 106 104 112 109 101 101 90 79 83 95 85 71 75 60 31 32 41 52 61 61 57 55 56 59 57 51 43 34 27
141 139 138 137 134 134 130 131 133 122 121 125 121 120 120 118 122 124 118 119 123 124 127 130 131 130 130 129 127 128 126 125 122 113 110 115 112 114 113 116 113 105 106 98 76 67 72 76 92 91 83 72 77 93 106 110 108 100 104 104 97 95 87 84 87 88 88 86 70 55 55 26 8 3 8 20 30 35 39 44 47 43 34 28 26
143 144 142 139 137 137 135 136 136 132 131 128 123 120 119 121 125 127 124 124 125 125 128 128 128 130 133 135 132 130 125 126 125 116 111 112 110 113 115 124 114 98 98 96 86 80 74 68 86 91 93 98 87 90 102 105 108 109 103 97 92 82 83 91 93 91 85 77 68 58 63 67 23 354 349 350 2 20 29 36 38 34 27 25 28
147 147 145 143 140 139 139 140 139 136 134 132 131 127 123 127 128 129 128 124 127 130 130 130 130 129 134 140 137 133 129 131 130 118 112 118 120 123 130 129 115 109 99 83 77 73 79 85 80 81 89 95 96 104 103 100 105 112 112 107 96 81 94 91 71 89 90 67 74 50 21 40 38 22 35 13 347 4 21 32 33 27 25 27 33
150 150 148 146 144 142 141 142 143 140 140 140 137 134 130 127 127 129 127 125 131 132 131 134 134 131 139 149 145 141 137 136 133 121 114 125 125 125 134 123 111 116 98 70 64 50 54 63 69 81 78 50 68 107 113 117 119 115 115 116 103 76 88 93 79 94 94 48 16 53 15 21 23 8 32 44 1 351 359 13 21 20 20 23 32
152 153 151 149 148 145 144 147 147 143 146 144 135 135 134 126 128 136 131 131 137 136 139 143 142 143 153 160 152 148 143 140 142 130 123 135 132 135 145 126 114 109 99 86 91 69 52 51 55 78 73 40 46 74 92 107 116 116 112 114 119 94 80 87 95 100 92 54 53 78 38 31 42 20 32 65 28 5 352 357 3 6 9 15 30
154 156 153 153 151 148 149 149 149 148 153 149 137 137 137 128 134 142 136 137 143 144 147 150 159 163 167 167 152 150 148 141 146 138 131 135 133 147 154 126 116 105 101 104 94 82 85 78 57 63 58 44 44 54 77 64 69 99 98 99 105 100 91 96 104 100 98 88 70 77 34 34 50 19 22 52 41 15 12 5 359 356 354 1 20
156 157 156 157 154 154 156 151 152 156 159 154 143 142 141 135 143 147 143 145 146 149 152 157 171 164 163 169 155 153 151 142 145 144 140 138 133 156 153 120 122 125 113 108 87 83 92 71 59 70 51 25 46 57 61 47 68 94 90 101 103 104 100 96 111 109 109 114 86 89 76 42 60 51 32 57 67 20 19 25 14 358 347 349 3
159 160 159 160 158 158 161 156 156 161 160 155 147 148 149 146 151 152 152 153 150 154 154 151 149 145 159 164 155 153 153 147 146 148 150 146 141 155 148 127 134 160 141 132 140 139 103 63 38 65 56 18 38 59 79 76 106 118 112 119 117 122 104 79 109 134 122 129 102 91 107 44 58 82 61 53 60 39 21 30 25 4 0 354 355
163 163 162 163 162 162 165 161 162 163 160 156 152 153 155 153 154 155 160 159 153 153 150 147 150 161 166 155 150 160 156 152 151 152 153 144 144 156 150 144 155 178 159 138 129 117 105 74 34 55 75 61 39 56 109 122 125 139 135 133 123 125 114 68 102 139 130 133 119 94 88 55 61 70 54 49 54 50 32 37 38 18 14 10 6
166 167 166 166 164 166 168 166 168 166 161 164 160 156 159 162 159 155 162 157 144 144 150 159 163 164 163 155 162 170 157 155 155 149 150 150 155 151 143 162 167 170 157 136 127 106 103 72 45 72 107 102 78 66 85 106 114 132 148 147 139 112 106 95 97 101 101 115 107 86 100 97 72 60 64 54 41 41 39 44 50 44 33 30 30
170 170 170 169 167 171 173 170 172 170 167 171 164 159 171 173 163 152 151 148 137 143 154 159 154 148 158 166 172 170 154 156 160 147 163 178 163 146 156 207 183 157 152 128 109 80 74 73 89 119 98 84 93 90 69 83 110 127 172 160 137 95 84 94 109 92 73 102 100 72 95 97 66 72 75 50 51 46 9 16 36 45 42 39 37
173 174 173 173 171 174 176 174 174 172 174 176 169 172 180 174 167 160 155 153 147 151 155 154 149 150 160 166 173 172 156 163 172 159 181 189 166 160 168 190 190 145 130 89 87 79 81 107 124 110 71 55 86 102 96 89 102 123 139 116 90 76 51 40 89 88 75 95 90 65 90 86 62 80 82 65 75 63 351 358 12 25 34 35 30
175 175 175 175 173 175 177 176 174 172 177 180 177 179 177 169 168 162 158 158 153 156 159 161 161 159 165 165 170 174 163 170 175 164 189 191 169 177 165 157 210 165 152 160 158 146 136 135 114 98 87 105 101 93 106 113 115 103 107 109 91 70 46 41 74 85 86 76 82 93 85 86 84 68 76 88 74 48 31 360 347 352 9 23 20
177 176 175 175 172 175 177 177 176 174 178 183 182 180 174 169 166 162 167 163 157 164 161 156 158 158 163 162 163 173 168 167 176 179 191 189 173 186 176 158 181 212 185 177 169 138 143 184 181 141 158 150 114 82 94 108 114 97 100 117 116 58 55 108 133 110 114 34 103 120 68 66 81 59 71 88 49 9 25 20 354 335 334 354 359
178 175 175 175 172 175 177 177 178 175 180 188 184 178 177 173 164 166 174 159 161 175 159 146 154 155 159 157 161 180 174 166 187 199 186 186 186 188 192 171 168 202 211 184 183 199 201 211 199 163 160 139 104 95 111 105 86 87 119 120 124 222 121 112 110 109 129 72 55 107 82 42 19 39 85 78 36 340 346 336 344 328 316 332 338
179 176 174 174 173 176 177 178 180 177 183 190 187 180 181 178 167 170 176 159 170 176 156 159 166 159 162 164 165 180 185 178 192 203 184 192 200 188 195 182 170 190 193 194 216 207 208 206 185 163 160 135 88 147 128 96 54 56 88 94 129 194 271 216 209 262 155 132 108 146 116 4 2 47 84 43 15 332 336 311 324 338 319 324 328
181 177 175 174 173 177 178 180 181 180 186 190 188 183 184 183 173 173 177 168 171 165 155 175 180 169 170 176 175 173 177 185 196 205 194 195 198 188 191 181 180 209 203 196 206 209 215 200 176 199 207 185 165 150 116 29 11 84 67 339 82 148 278 250 243 288 235 199 227 154 120 260 155 100 350 337 328 299 307 349 341 331 304 312 323
181 179 178 175 174 178 180 181 181 181 186 189 189 186 184 186 180 178 180 175 177 173 167 182 184 171 165 174 181 166 159 175 193 212 200 192 197 180 169 194 203 216 209 187 195 218 207 191 224 233 232 216 212 200 174 282 298 101 219 311 343 248 230 227 267 304 318 311 315 24 48 357 7 122 3 347 335 310 322 348 336 317 319 317 318